GW5681 Weather Reports


Display with metric or nautical units.
time (UTC)temp
F
wind
direction
speed
MPH
gust
MPH
rain 1hr
in
rain 24hr
in
rain mn
in
humidity
%
barometer
mb
20260510060517 43 136 2.0 6.0 0.00 0.24 0.01 67 1009.4
20260510055518 44 169 2.0 5.0 0.00 0.24 0.01 66 1009.3
20260510054538 44 174 2.0 4.0 0.00 0.24 0.01 65 1009.2
20260510053538 45 232 2.0 7.0 0.00 0.24 0.01 64 1009.0
20260510052516 45 191 2.0 5.0 0.00 0.24 0.01 65 1009.0
20260510051519 45 267 1.0 3.0 0.00 0.24 0.01 66 1008.9
20260510050516 46 240 1.0 4.0 0.00 0.24 0.01 64 1008.6
20260510045516 46 224 1.0 3.0 0.00 0.24 0.01 64 1008.5
20260510044516 46 260 1.0 3.0 0.00 0.24 0.01 70 1008.3
20260510043516 47 283 1.0 2.0 0.00 0.24 0.01 69 1008.4
20260510042517 47 285 1.0 4.0 0.00 0.24 0.01 67 1008.2
20260510041516 48 167 0.0 1.0 0.00 0.24 0.01 65 1007.9
20260510035517 48 294 1.0 3.0 0.00 0.24 0.01 60 1008.1
20260510034517 48 245 2.0 5.0 0.00 0.24 0.01 61 1007.4
20260510033517 48 134 2.0 7.0 0.00 0.24 0.01 62 1007.6
20260510032517 49 231 1.0 4.0 0.00 0.24 0.01 62 1007.5
20260510031538 49 167 2.0 6.0 0.00 0.24 0.01 63 1007.5
20260510030537 49 160 1.0 4.0 0.00 0.24 0.01 63 1007.3
20260510025537 49 142 2.0 6.0 0.00 0.24 0.01 63 1007.0
20260510024518 50 144 2.0 6.0 0.00 0.24 0.01 64 1006.7
20260510023517 50 167 1.0 4.0 0.00 0.24 0.01 65 1006.8
20260510022518 50 183 2.0 5.0 0.00 0.24 0.01 69 1006.6
20260510021518 50 135 1.0 5.0 0.00 0.24 0.01 69 1005.9
20260510020518 51 129 2.0 4.0 0.00 0.24 0.01 69 1006.4
20260510015516 52 117 2.0 6.0 0.00 0.24 0.01 73 1006.3
20260510014516 53 238 2.0 6.0 0.00 0.24 0.01 74 1006.1
20260510013536 52 175 2.0 6.0 0.01 0.24 0.01 83 1005.8
20260510012536 53 304 0.0 1.0 0.01 0.24 0.01 89 1005.4
20260510011516 53 304 1.0 3.0 0.01 0.24 0.01 89 1005.1
20260510010516 53 287 1.0 3.0 0.01 0.24 0.01 89 1004.7
20260510005516 53 284 1.0 2.0 0.01 0.24 0.01 89 1004.4
20260510004518 53 297 1.0 3.0 0.01 0.24 0.01 88 1004.2
20260510003518 53 317 1.0 2.0 0.00 0.24 0.00 88 1004.0
20260510002518 53 319 1.0 2.0 0.00 0.24 0.00 87 1003.8
20260510001537 53 329 1.0 2.0 0.00 0.24 0.00 86 1003.8
20260510000517 54 325 1.0 2.0 0.00 0.24 0.00 85 1003.8
20260509235517 55 328 1.0 2.0 0.00 0.24 0.00 83 1003.8
20260509234517 55 336 1.0 3.0 0.00 0.24 0.00 82 1003.6
20260509233518 55 317 1.0 3.0 0.00 0.24 0.00 81 1003.5
20260509232518 56 320 1.0 4.0 0.00 0.24 0.00 79 1003.2
20260509231518 57 329 2.0 5.0 0.00 0.24 0.00 78 1003.1
20260509230518 58 296 2.0 4.0 0.00 0.24 0.00 76 1002.8
20260509225536 58 287 1.0 6.0 0.00 0.24 0.24 76 1002.6
20260509224516 57 310 1.0 5.0 0.00 0.24 0.24 77 1002.4
20260509223516 57 338 2.0 5.0 0.00 0.24 0.24 79 1002.3
20260509222536 57 302 1.0 4.0 0.00 0.24 0.24 79 1002.2
20260509221516 57 322 2.0 5.0 0.00 0.24 0.24 82 1002.1
20260509220516 56 323 2.0 5.0 0.00 0.24 0.24 83 1002.1
20260509215517 56 282 3.0 8.0 0.05 0.24 0.24 83 1002.2
20260509214517 57 298 3.0 7.0 0.14 0.24 0.24 83 1002.2
20260509213516 58 322 2.0 5.0 0.20 0.24 0.24 84 1002.0
20260509212517 56 343 1.0 5.0 0.23 0.24 0.24 90 1001.7
20260509211517 54 319 3.0 7.0 0.23 0.24 0.24 91 1001.9
20260509210517 54 354 3.0 8.0 0.23 0.23 0.23 91 1002.2
20260509205537 55 298 3.0 8.0 0.18 0.19 0.19 90 1002.8
20260509204518 56 304 2.0 5.0 0.09 0.10 0.10 85 1002.6
20260509203518 57 318 2.0 7.0 0.03 0.04 0.04 80 1002.0
20260509202518 58 328 2.0 6.0 0.00 0.01 0.01 76 1001.7
20260509201518 58 330 3.0 7.0 0.00 0.01 0.01 75 1001.6
20260509200538 59 349 3.0 7.0 0.00 0.01 0.01 75 1001.8
20260509195519 59 335 3.0 8.0 0.00 0.01 0.01 75 1001.8
20260509194515 60 342 3.0 6.0 0.00 0.01 0.01 74 1001.7
20260509193515 60 347 3.0 7.0 0.00 0.01 0.01 73 1001.7
20260509192536 60 4 3.0 7.0 0.00 0.01 0.01 73 1001.9
20260509191516 60 353 3.0 6.0 0.00 0.01 0.01 73 1002.0
20260509190536 59 1 3.0 7.0 0.00 0.01 0.01 76 1002.1
20260509185516 60 321 4.0 11.0 0.00 0.00 0.00 72 1002.7
20260509184536 60 330 2.0 6.0 0.00 0.00 0.00 71 1002.9
20260509183517 60 347 3.0 6.0 0.00 0.00 0.00 71 1002.6
20260509182517 61 355 2.0 6.0 0.00 0.00 0.00 69 1002.8
20260509181517 62 356 3.0 6.0 0.00 0.00 0.00 67 1002.6
20260509180517 63 355 3.0 7.0 0.00 0.00 0.00 65 1002.8
20260509175517 64 346 3.0 8.0 0.00 0.00 0.00 63 1002.4
20260509174517 64 345 3.0 8.0 0.00 0.00 0.00 63 1002.3
20260509173518 64 3 3.0 8.0 0.00 0.00 0.00 62 1002.8
20260509172518 65 351 3.0 8.0 0.00 0.00 0.00 61 1002.8
20260509171538 64 7 3.0 6.0 0.00 0.00 0.00 63 1002.9
20260509170518 64 333 3.0 7.0 0.00 0.00 0.00 64 1002.9
20260509165518 64 2 3.0 6.0 0.00 0.00 0.00 64 1003.0
20260509164519 64 350 3.0 7.0 0.00 0.00 0.00 64 1003.6
20260509163518 62 328 3.0 7.0 0.00 0.00 0.00 65 1003.8
20260509162516 61 318 3.0 9.0 0.00 0.00 0.00 68 1004.4
20260509161516 62 333 2.0 10.0 0.00 0.00 0.00 67 1004.5
20260509160516 62 354 2.0 7.0 0.00 0.00 0.00 67 1004.5
20260509155516 61 4 2.0 5.0 0.00 0.00 0.00 70 1004.2
20260509154516 60 328 3.0 7.0 0.00 0.00 0.00 71 1004.2
20260509153516 61 334 2.0 7.0 0.00 0.00 0.00 71 1004.4
20260509152516 61 335 3.0 8.0 0.00 0.00 0.00 70 1004.2
20260509151517 60 345 3.0 10.0 0.00 0.00 0.00 74 1004.1
20260509150517 59 330 2.0 5.0 0.00 0.00 0.00 75 1004.4
20260509145517 58 341 2.0 5.0 0.00 0.00 0.00 78 1004.7
20260509144519 58 340 2.0 5.0 0.00 0.00 0.00 78 1004.7
20260509143517 57 328 2.0 7.0 0.00 0.00 0.00 81 1004.7
20260509142518 56 328 2.0 6.0 0.00 0.00 0.00 82 1004.8
20260509141517 55 347 2.0 6.0 0.00 0.00 0.00 85 1004.8
20260509140519 54 345 1.0 5.0 0.00 0.00 0.00 87 1004.9
20260509135518 54 328 3.0 7.0 0.00 0.00 0.00 88 1004.9
20260509134518 53 331 2.0 8.0 0.00 0.00 0.00 90 1005.0
20260509133519 52 323 2.0 3.0 0.00 0.00 0.00 92 1005.1
20260509132519 52 323 2.0 6.0 0.00 0.00 0.00 93 1005.2
20260509131536 51 327 2.0 5.0 0.00 0.00 0.00 94 1005.3
20260509130536 51 320 1.0 4.0 0.00 0.00 0.00 95 1005.2
20260509125516 50 321 2.0 4.0 0.00 0.00 0.00 98 1005.2
20260509124516 50 328 1.0 5.0 0.00 0.00 0.00 99 1005.4
20260509123516 49 325 2.0 5.0 0.00 0.00 0.00 99 1005.5
20260509122516 49 347 1.0 4.0 0.00 0.00 0.00 99 1005.5
20260509121516 49 326 1.0 4.0 0.00 0.00 0.00 99 1005.6
20260509120517 48 350 1.0 4.0 0.00 0.00 0.00 99 1005.6
20260509115518 48 7 2.0 5.0 0.00 0.00 0.00 99 1005.7
20260509114517 48 354 2.0 4.0 0.00 0.00 0.00 98 1005.6
20260509113517 47 2 1.0 3.0 0.00 0.00 0.00 98 1005.6
20260509112538 47 0 1.0 4.0 0.00 0.00 0.00 98 1005.5
20260509111517 47 1 1.0 4.0 0.00 0.00 0.00 98 1005.5
20260509110518 47 310 2.0 5.0 0.00 0.00 0.00 98 1005.6
20260509105518 47 339 1.0 4.0 0.00 0.00 0.00 98 1005.4
20260509104518 47 335 1.0 3.0 0.00 0.00 0.00 97 1005.5
20260509103518 46 340 1.0 3.0 0.00 0.00 0.00 97 1005.5
20260509102518 46 339 1.0 4.0 0.00 0.00 0.00 97 1005.5
20260509101519 46 325 1.0 3.0 0.00 0.00 0.00 97 1005.5
20260509100516 45 319 1.0 3.0 0.00 0.00 0.00 96 1005.7
20260509095516 45 348 1.0 2.0 0.00 0.00 0.00 96 1005.7
20260509094556 45 327 1.0 3.0 0.00 0.00 0.00 95 1005.8
20260509093516 45 326 1.0 3.0 0.00 0.00 0.00 94 1005.8
20260509092516 44 322 1.0 2.0 0.00 0.00 0.00 93 1005.8
20260509091516 44 341 1.0 3.0 0.00 0.00 0.00 90 1006.0
20260509090516 44 321 1.0 3.0 0.00 0.00 0.00 88 1006.1
20260509085538 44 307 1.0 2.0 0.00 0.00 0.00 86 1006.3
20260509084517 44 280 1.0 4.0 0.00 0.00 0.00 85 1006.3
20260509083537 45 291 1.0 3.0 0.00 0.00 0.00 84 1006.2
20260509082537 45 283 1.0 3.0 0.00 0.01 0.00 84 1006.0
20260509081537 45 270 1.0 3.0 0.00 0.01 0.00 83 1005.8
20260509080538 45 319 1.0 2.0 0.00 0.01 0.00 84 1005.8
20260509075518 45 310 1.0 2.0 0.00 0.01 0.00 83 1006.0
20260509074517 45 338 1.0 2.0 0.00 0.02 0.00 82 1006.1
20260509073538 45 344 1.0 3.0 0.00 0.02 0.00 83 1006.1
20260509072518 45 333 1.0 3.0 0.00 0.02 0.00 82 1006.2
20260509071539 45 329 1.0 4.0 0.00 0.02 0.00 81 1006.3
20260509070518 45 318 2.0 5.0 0.00 0.02 0.00 80 1006.4
20260509065516 45 337 1.0 3.0 0.00 0.02 0.00 78 1006.5
20260509064516 45 336 2.0 4.0 0.00 0.02 0.00 76 1006.6
20260509063516 44 336 1.0 3.0 0.00 0.02 0.00 75 1006.7
20260509062516 44 327 1.0 3.0 0.00 0.02 0.00 74 1006.9
20260509061516 44 329 1.0 3.0 0.00 0.02 0.00 74 1007.1